Tracking 27097 objects as of 30-Mar-2023
HD Live streaming from Space Station
objects crossing your sky now

STARLINK-4117

Track STARLINK-4117 now!
10-day predictions
STARLINK-4117 is classified as:


NORAD ID: 53169
Int'l Code: 2022-083AP
Perigee: 546.1 km
Apogee: 547.7 km
Inclination: 53.2 °
Period: 95.4 minutes
Semi major axis: 6917 km
RCS: Unknown
Launch date: July 17, 2022
Source: United States (US)
Launch site: AIR FORCE EASTERN TEST RANGE (AFETR)
Your satellite tracking list
Your tracking list is empty




NASA's NSSDC Master Catalog

Two Line Element Set (TLE):
1 53169U 22083AP  23087.99155969 -.00000310  00000-0 -13788-5 0  9990
2 53169  53.2175 302.6031 0001138  83.4631 276.6491 15.08845217 39011
Source of the keplerian elements: AFSPC